[[{"header":{"parameterUnit":"m.s-1","parameterCategory":1,"la1":30.2991,"la2":30.254,"lo1":-89.0895,"lo2":-89.0444,"dy":0.0017,"dx":0.0017,"nx":28,"ny":28,"refTime":"2023-07-22T09:00:00:Z","depth":0,"parameterNumber":2,"parameterNumberName":"U-component_of_WINDS"},"data":[0,0,0,0,0,0,0,0,0,0,0,0,0,0,0,0,0,0,0,0,0,0,0,0,0,0,0,0,0,0,0,0,0,0,0,0,0,0,0,0,0,0,0,0,0,0,0,0,0,0,0,0,0,0,0,0,0,0,1.4011,1.4012,0,1.4177,1.4179,1.4181,1.4216,1.4215,1.4214,1.4213,1.4385,1.4391,1.4397,0,0,0,0,0,0,0,0,0,0,0,0,0,1.3726,1.3731,1.401,1.4013,1.4015,1.4177,1.4179,1.4182,1.4217,1.4215,1.4214,1.4212,1.4384,1.439,1.4397,0,0,0,0,0,0,0,0,0,0,0,0,0,1.3867,1.3732,1.401,1.4052,1.4057,1.4177,1.4179,1.4182,1.4217,1.4215,1.4213,1.4212,1.4381,1.439,1.4398,1.4489,0,0,1.4424,1.4428,0,0,0,0,0,0,0,0,1.3859,1.3877,1.4043,1.4049,1.4055,1.4174,1.4142,1.4285,1.4217,1.4156,1.4213,1.4211,1.4317,1.4331,1.4366,1.4497,1.4504,1.4425,1.443,1.4434,1.4437,0,0,0,0,0,0,0,1.3849,1.387,1.4077,1.4046,1.4053,1.4063,1.4081,1.4169,1.4245,1.4162,1.4164,1.4184,1.432,1.4358,1.437,1.4507,1.4425,1.4433,1.4438,1.4441,1.4723,1.4725,0,0,0,0,0,0,1.3831,1.3862,1.4071,1.4082,1.395,1.407,1.409,1.4138,1.4244,1.4258,1.4185,1.4185,1.4344,1.436,1.4376,1.4491,1.4434,1.4442,1.4447,1.472,1.4723,1.4726,0,0,0,0,0,0,1.3825,1.385,1.4065,1.3973,1.4001,1.4077,1.413,1.4142,1.418,1.4262,1.4276,1.421,1.4343,1.4364,1.4461,1.4497,1.4446,1.4454,1.4718,1.4721,1.4724,1.472,0,0,0,0,0,0,1.3817,1.3847,1.3881,1.3973,1.4005,1.4145,1.4133,1.4147,1.4195,1.4196,1.4289,1.4302,1.4343,1.4448,1.4469,1.4508,1.4461,1.4715,1.4719,1.4723,1.4717,1.4722,1.4727,0,0,0,0,0,1.3806,1.3873,1.3883,1.3908,1.405,1.4147,1.4166,1.4211,1.4197,1.4233,1.4286,1.4299,1.449,1.4457,1.4482,1.4524,1.4713,1.4718,1.4723,1.4715,1.4721,1.4727,0,0,0,0,0,0,1.3784,1.3886,1.3898,1.3996,1.4063,1.4153,1.4199,1.4216,1.4288,1.4286,1.434,1.4361,1.4454,1.4499,1.4461,1.4619,1.4601,1.4611,1.4586,1.4593,1.4598,1.4586,1.4468,0,0,0,0,0,1.3791,1.386,1.3946,1.4024,1.4057,1.4122,1.4166,1.4196,1.4267,1.4295,1.4355,1.4425,1.4501,1.4549,1.4623,1.4723,1.4745,1.4765,1.477,1.4774,1.4782,1.4841,1.4851,1.4743,1.4743,1.4742,0,0,1.3805,1.3869,1.391,1.4022,1.4077,1.4149,1.4146,1.4222,1.4277,1.4307,1.4402,1.4449,1.453,1.4629,1.4676,1.4669,1.4817,1.478,1.4783,1.479,1.4847,1.4858,1.4867,1.4746,1.4745,1.4745,0,0,1.3868,1.3923,1.3995,1.405,1.4134,1.4177,1.4194,1.4283,1.4315,1.4411,1.4436,1.4502,1.4631,1.4689,1.4735,1.4822,1.4837,1.4844,1.4872,1.4928,1.4937,1.4945,1.4977,1.4988,1.4852,1.4852,1.4852,0,1.3875,1.3984,1.403,1.4106,1.4155,1.4186,1.4261,1.4313,1.4416,1.445,1.4441,1.4605,1.4661,1.4776,1.4797,1.4833,1.4856,1.4834,1.4932,1.494,1.4948,1.498,1.4992,1.4853,1.4853,1.4853,1.4853,0,1.399,1.4065,1.4114,1.4213,1.4268,1.4342,1.4401,1.4452,1.4476,1.4521,1.462,1.4689,1.4779,1.4808,1.4833,1.4927,1.492,1.4921,1.4904,1.4958,1.4989,1.5001,1.4853,1.4853,1.4853,1.4853,0,0,1.4042,1.4167,1.4184,1.4231,1.4326,1.4386,1.4463,1.455,1.4593,1.4664,1.4731,1.484,1.4842,1.4894,1.4926,1.4976,1.5042,1.4971,1.4973,1.4983,1.5152,1.5152,1.5165,1.5053,1.5056,1.5058,1.5146,0,1.4118,1.4256,1.43,1.4416,1.4487,1.4518,1.4586,1.4652,1.4697,1.4765,1.4814,1.4891,1.4887,1.4919,1.4969,1.5023,1.5077,1.5018,1.5118,1.5121,1.5097,1.5181,1.5181,1.5261,1.5158,1.516,1.5162,0,1.4224,1.4297,1.4419,1.4507,1.4539,1.4598,1.4683,1.4747,1.4824,1.4853,1.4912,1.4941,1.5024,1.5003,1.5119,1.5078,1.5122,1.5155,1.5159,1.5171,1.5145,1.5196,1.5287,1.5299,1.5181,1.518,1.5178,0,1.4252,1.4381,1.4471,1.4509,1.4614,1.4655,1.4701,1.4776,1.4826,1.4901,1.4935,1.5018,1.5064,1.5128,1.5179,1.5158,1.5293,1.5274,1.532,1.5319,1.5347,1.5345,1.5448,1.5374,1.5374,1.5373,1.5373,0,1.4332,1.4406,1.4485,1.4541,1.4625,1.4677,1.4759,1.4807,1.4874,1.494,1.4973,1.5035,1.5098,1.5169,1.5209,1.5301,1.5321,1.5348,1.5358,1.5346,1.5342,1.5376,1.5372,1.5377,1.5376,1.5375,1.5375,0,1.4378,1.4433,1.4534,1.4625,1.465,1.4708,1.4787,1.4843,1.4889,1.4973,1.4996,1.5068,1.5154,1.5211,1.532,1.5347,1.5448,1.5456,1.5422,1.5427,1.547,1.5465,1.5598,1.5619,1.553,1.553,1.5531,0,1.4426,1.4483,1.4581,1.4628,1.4673,1.4748,1.48,1.4853,1.4906,1.4999,1.5045,1.5132,1.5205,1.534,1.5403,1.5488,1.5499,1.554,1.5512,1.5499,1.5502,1.5498,1.5505,1.5544,1.5545,1.5546,1.5546,0,1.4505,1.453,1.4603,1.4687,1.4747,1.4816,1.4884,1.4921,1.4987,1.5045,1.5132,1.5189,1.5301,1.5388,1.5479,1.5527,1.5549,1.5554,1.557,1.5558,1.5536,1.555,1.5435,1.5551,1.5551,1.555,1.555,1.555,1.4555,1.4608,1.4686,1.4766,1.4824,1.4887,1.4945,1.4999,1.5072,1.5167,1.5195,1.5286,1.5364,1.5488,1.5538,1.5612,1.5608,1.563,1.5635,1.564,1.5641,1.5524,1.5628,1.5628,1.5628,1.5628,1.5628,0,1.4637,1.4689,1.4763,1.4858,1.4922,1.4935,1.5013,1.5066,1.5146,1.5216,1.5287,1.5389,1.5474,1.5545,1.5633,1.5679,1.5691,1.57,1.5698,1.5709,1.5639,1.5617,1.5689,1.5689,1.5689,1.5689,1.5689,1.5689,1.4688,1.478,1.4814,1.4935,1.4987,1.5076,1.512,1.5179,1.5236,1.5348,1.5419,1.5464,1.5535,1.5629,1.5709,1.5728,1.5759,1.5767,1.5788,1.5721,1.5714,1.5707,1.5688,1.5773,1.5773,1.5852,1.5853,1.5854]},{"header":{"parameterUnit":"m.s-1","parameterCategory":1,"la1":30.2991,"la2":30.254,"lo1":-89.0895,"lo2":-89.0444,"dy":0.0017,"dx":0.0017,"nx":28,"ny":28,"refTime":"2023-07-22T09:00:00:Z","depth":0,"parameterNumber":3,"parameterNumberName":"V-component_of_WINDS"},"data":[0,0,0,0,0,0,0,0,0,0,0,0,0,0,0,0,0,0,0,0,0,0,0,0,0,0,0,0,0,0,0,0,0,0,0,0,0,0,0,0,0,0,0,0,0,0,0,0,0,0,0,0,0,0,0,0,0,0,-2.0159,-2.0159,0,-2.0223,-2.0223,-2.0224,-2.0246,-2.0246,-2.0246,-2.0245,-2.0308,-2.031,-2.0312,0,0,0,0,0,0,0,0,0,0,0,0,0,-2.0053,-2.0054,-2.0158,-2.0159,-2.016,-2.0222,-2.0223,-2.0224,-2.0246,-2.0246,-2.0246,-2.0245,-2.0308,-2.031,-2.0312,0,0,0,0,0,0,0,0,0,0,0,0,0,-2.0106,-2.0055,-2.0158,-2.0179,-2.0181,-2.0222,-2.0223,-2.0224,-2.0246,-2.0246,-2.0246,-2.0245,-2.0307,-2.031,-2.0312,-2.0337,0,0,-2.0321,-2.0322,0,0,0,0,0,0,0,0,-2.0103,-2.011,-2.0175,-2.0177,-2.018,-2.0226,-2.0209,-2.0262,-2.0246,-2.0221,-2.0245,-2.0245,-2.0281,-2.0286,-2.0299,-2.034,-2.0343,-2.0321,-2.0323,-2.0324,-2.0325,0,0,0,0,0,0,0,-2.0099,-2.0107,-2.0184,-2.0176,-2.0179,-2.0184,-2.0191,-2.0219,-2.0252,-2.0224,-2.0225,-2.0233,-2.0282,-2.0296,-2.03,-2.0344,-2.0321,-2.0324,-2.0326,-2.0327,-2.0409,-2.0409,0,0,0,0,0,0,-2.0092,-2.0104,-2.0182,-2.0186,-2.014,-2.0186,-2.0194,-2.0212,-2.0252,-2.0258,-2.0233,-2.0234,-2.0291,-2.0297,-2.0303,-2.0334,-2.0324,-2.0327,-2.0329,-2.0408,-2.0409,-2.0409,0,0,0,0,0,0,-2.009,-2.0099,-2.0179,-2.0145,-2.0156,-2.0188,-2.0208,-2.0213,-2.0227,-2.0259,-2.0265,-2.0241,-2.0291,-2.0299,-2.0329,-2.0337,-2.0328,-2.0331,-2.0408,-2.0408,-2.0409,-2.0398,0,0,0,0,0,0,-2.0087,-2.0098,-2.0108,-2.0145,-2.0158,-2.0205,-2.0208,-2.0215,-2.0232,-2.0233,-2.0268,-2.0274,-2.0291,-2.0324,-2.0331,-2.034,-2.0333,-2.0407,-2.0408,-2.0409,-2.0397,-2.0398,-2.0398,0,0,0,0,0,-2.0083,-2.0102,-2.0109,-2.0118,-2.0171,-2.0205,-2.0212,-2.0233,-2.0232,-2.0243,-2.0264,-2.0273,-2.0335,-2.0327,-2.0335,-2.0345,-2.0407,-2.0408,-2.0409,-2.0397,-2.0398,-2.0398,0,0,0,0,0,0,-2.0064,-2.0107,-2.0115,-2.0147,-2.0172,-2.0209,-2.0223,-2.0233,-2.0258,-2.0258,-2.0282,-2.029,-2.0318,-2.0335,-2.0326,-2.0371,-2.0371,-2.0374,-2.0359,-2.036,-2.0361,-2.0356,-2.0335,0,0,0,0,0,-2.0064,-2.0089,-2.0125,-2.0149,-2.0162,-2.019,-2.0205,-2.0219,-2.0246,-2.0257,-2.028,-2.0305,-2.033,-2.0346,-2.0371,-2.04,-2.0408,-2.0411,-2.0411,-2.0412,-2.0413,-2.043,-2.0431,-2.0413,-2.0413,-2.0413,0,0,-2.0063,-2.009,-2.0104,-2.0146,-2.0167,-2.0192,-2.0199,-2.0224,-2.0242,-2.026,-2.029,-2.0308,-2.0338,-2.0367,-2.0381,-2.0382,-2.042,-2.0413,-2.0413,-2.0415,-2.0431,-2.0433,-2.0434,-2.0414,-2.0413,-2.0413,0,0,-2.0074,-2.0097,-2.012,-2.0142,-2.0174,-2.0193,-2.0198,-2.0234,-2.0247,-2.0277,-2.0291,-2.0313,-2.0356,-2.0376,-2.0392,-2.0411,-2.042,-2.0419,-2.0421,-2.0436,-2.0438,-2.0439,-2.0445,-2.0448,-2.0421,-2.0421,-2.0421,0,-2.0069,-2.0107,-2.013,-2.0155,-2.0173,-2.0192,-2.0215,-2.0234,-2.0273,-2.0284,-2.0285,-2.034,-2.0361,-2.0395,-2.04,-2.0412,-2.0419,-2.0415,-2.0436,-2.0437,-2.0439,-2.0445,-2.0448,-2.042,-2.042,-2.042,-2.042,0,-2.0099,-2.0125,-2.014,-2.0178,-2.0197,-2.0221,-2.0247,-2.0264,-2.0276,-2.0294,-2.0325,-2.0351,-2.0382,-2.0391,-2.0403,-2.0427,-2.0427,-2.0431,-2.0431,-2.044,-2.0446,-2.0449,-2.042,-2.042,-2.042,-2.042,0,0,-2.01,-2.0151,-2.0155,-2.0173,-2.021,-2.0231,-2.0255,-2.0286,-2.03,-2.0326,-2.0346,-2.0382,-2.0387,-2.0405,-2.0419,-2.0433,-2.0446,-2.0436,-2.0437,-2.0436,-2.0474,-2.047,-2.0472,-2.0453,-2.0453,-2.0454,-2.0471,0,-2.0115,-2.0161,-2.0182,-2.0218,-2.0242,-2.026,-2.0281,-2.0306,-2.0324,-2.0346,-2.0366,-2.0391,-2.0395,-2.0406,-2.0421,-2.0441,-2.0454,-2.0441,-2.0471,-2.0472,-2.0463,-2.0476,-2.0472,-2.0487,-2.0474,-2.0474,-2.0475,0,-2.014,-2.0167,-2.0205,-2.024,-2.025,-2.0269,-2.0299,-2.0321,-2.0349,-2.0361,-2.0382,-2.0396,-2.0421,-2.042,-2.0455,-2.0445,-2.0459,-2.0471,-2.0472,-2.0475,-2.0473,-2.0479,-2.0493,-2.0495,-2.0479,-2.0479,-2.0478,0,-2.0136,-2.0182,-2.021,-2.0225,-2.0266,-2.0279,-2.0296,-2.0324,-2.0342,-2.0368,-2.0379,-2.0407,-2.0422,-2.0443,-2.0464,-2.0462,-2.0497,-2.0498,-2.0507,-2.0507,-2.0514,-2.0513,-2.0529,-2.0523,-2.0523,-2.0523,-2.0523,0,-2.0151,-2.0173,-2.0209,-2.0227,-2.0252,-2.0277,-2.0301,-2.032,-2.0345,-2.0366,-2.0383,-2.0402,-2.0429,-2.0451,-2.0468,-2.0494,-2.0501,-2.0511,-2.0515,-2.0509,-2.0508,-2.0518,-2.0517,-2.0524,-2.0524,-2.0524,-2.0523,0,-2.0151,-2.0176,-2.0208,-2.0245,-2.0255,-2.0272,-2.0303,-2.032,-2.0339,-2.0365,-2.0373,-2.0402,-2.043,-2.0453,-2.0488,-2.0499,-2.0526,-2.0532,-2.0517,-2.0519,-2.0527,-2.0526,-2.0551,-2.0555,-2.0546,-2.0546,-2.0546,0,-2.0158,-2.0176,-2.0215,-2.0231,-2.0248,-2.0274,-2.0291,-2.0316,-2.0334,-2.0367,-2.038,-2.0409,-2.0433,-2.0476,-2.05,-2.0527,-2.0533,-2.0539,-2.0537,-2.053,-2.0532,-2.0531,-2.0532,-2.0539,-2.0539,-2.0539,-2.0539,0,-2.0169,-2.0181,-2.0206,-2.0236,-2.0257,-2.0282,-2.0307,-2.0318,-2.0347,-2.0366,-2.0395,-2.0414,-2.0451,-2.0479,-2.0509,-2.0526,-2.0537,-2.054,-2.0543,-2.0537,-2.0528,-2.0533,-2.0517,-2.0539,-2.0539,-2.0539,-2.0539,-2.0539,-2.0173,-2.019,-2.022,-2.0248,-2.0269,-2.0292,-2.031,-2.0332,-2.0356,-2.0389,-2.0402,-2.043,-2.0458,-2.05,-2.0517,-2.054,-2.0541,-2.0546,-2.0548,-2.0548,-2.0547,-2.0525,-2.0545,-2.0545,-2.0545,-2.0545,-2.0545,0,-2.0184,-2.0205,-2.023,-2.0265,-2.0287,-2.0297,-2.0325,-2.0342,-2.0367,-2.0393,-2.0417,-2.0449,-2.0476,-2.0503,-2.0531,-2.0544,-2.055,-2.0551,-2.055,-2.0553,-2.0544,-2.0538,-2.0546,-2.0546,-2.0546,-2.0546,-2.0546,-2.0546,-2.0193,-2.0222,-2.0237,-2.0276,-2.0296,-2.0325,-2.034,-2.0361,-2.0382,-2.0418,-2.0441,-2.0458,-2.0484,-2.0514,-2.054,-2.0547,-2.0556,-2.0555,-2.0564,-2.0554,-2.0554,-2.0554,-2.0548,-2.0557,-2.0557,-2.0571,-2.0571,-2.0571]}]]